When you browse on this site, cookies collect data to enhance your experience and personalize the content and advertising you see.
Visit our Privacy Policy to learn more. By continuing to use the site, you agree to this use of cookies and data.
  • en France
  • Liste des pays
  • À 7 jours
  • Température de l'eau
  • Carte satellitaire
  • Carte météo
  • Widgets météo
  • user-avatar
    Se connecter

    Météo par heure à Catanih

    Ce jour, 11 Décembre, Mardi

    Heure Température Précipitation Vent Pression Humidité
    00:00 -3°C° 0 mm 2 m/s 609 mmHg 61%
    01:00 -3°C° 0 mm 2 m/s 609 mmHg 60%
    02:00 -3°C° 0 mm 2 m/s 609 mmHg 59%
    03:00 -3°C° 0 mm 2 m/s 608 mmHg 60%
    04:00 -3°C° 0 mm 2 m/s 608 mmHg 58%
    05:00 -3°C° 0 mm 2 m/s 608 mmHg 57%
    06:00 -2°C° 0 mm 2 m/s 609 mmHg 56%
    07:00 -2°C° 0 mm 2 m/s 609 mmHg 54%
    08:00 -1°C° 0 mm 2 m/s 609 mmHg 52%
    09:00 +1°C° 0 mm 2 m/s 609 mmHg 49%
    10:00 +3°C° 0 mm 2 m/s 610 mmHg 48%
    11:00 +4°C° 0 mm 2 m/s 610 mmHg 47%
    12:00 +6°C° 0 mm 2 m/s 610 mmHg 46%
    13:00 +5°C° 0 mm 2 m/s 610 mmHg 48%
    14:00 +4°C° 0 mm 3 m/s 610 mmHg 51%
    15:00 +4°C° 0 mm 3 m/s 609 mmHg 54%
    16:00 +3°C° 0 mm 3 m/s 609 mmHg 56%
    17:00 +2°C° 0 mm 3 m/s 608 mmHg 59%
    18:00 0°C° 0 mm 4 m/s 608 mmHg 62%
    19:00 +1°C° 0 mm 3 m/s 608 mmHg 61%
    20:00 +2°C° 0 mm 3 m/s 608 mmHg 61%
    21:00 +2°C° 0 mm 3 m/s 608 mmHg 61%
    22:00 +1°C° 0 mm 3 m/s 608 mmHg 62%
    23:00 0°C° 0 mm 3 m/s 608 mmHg 64%

    Demain, 12 Décembre, Mercredi

    Heure Température Précipitation Vent Pression Humidité
    00:00 0°C° 0 mm 3 m/s 608 mmHg 65%
    01:00 0°C° 0 mm 3 m/s 608 mmHg 64%
    02:00 0°C° 0 mm 3 m/s 608 mmHg 63%
    03:00 0°C° 0 mm 3 m/s 609 mmHg 62%
    04:00 0°C° 0 mm 3 m/s 609 mmHg 62%
    05:00 -1°C° 0 mm 2 m/s 609 mmHg 63%
    06:00 -1°C° 0 mm 2 m/s 610 mmHg 63%
    07:00 +1°C° 0 mm 2 m/s 610 mmHg 60%
    08:00 +1°C° 0 mm 2 m/s 610 mmHg 57%
    09:00 +2°C° 0 mm 2 m/s 610 mmHg 53%
    10:00 +2°C° 0 mm 2 m/s 610 mmHg 52%
    11:00 +3°C° 0 mm 2 m/s 610 mmHg 51%
    12:00 +4°C° 0 mm 2 m/s 610 mmHg 49%
    13:00 +4°C° 0.2 mm 2 m/s 609 mmHg 53%
    14:00 +3°C° 0.2 mm 2 m/s 609 mmHg 57%
    15:00 +3°C° 0.2 mm 2 m/s 608 mmHg 61%
    16:00 +2°C° 0.1 mm 2 m/s 608 mmHg 64%
    17:00 +1°C° 0.1 mm 2 m/s 608 mmHg 67%
    18:00 +1°C° 0.1 mm 2 m/s 608 mmHg 71%
    19:00 -1°C° 0 mm 2 m/s 608 mmHg 73%
    20:00 -1°C° 0 mm 2 m/s 608 mmHg 75%
    21:00 -1°C° 0 mm 2 m/s 608 mmHg 77%
    22:00 -2°C° 0.1 mm 2 m/s 608 mmHg 79%
    23:00 -2°C° 0.1 mm 2 m/s 608 mmHg 80%

    Après-demain, 13 Décembre, Jeudi

    Heure Température Précipitation Vent Pression Humidité
    00:00 -2°C° 0.1 mm 2 m/s 608 mmHg 82%
    01:00 -2°C° 0.1 mm 2 m/s 608 mmHg 82%
    02:00 -2°C° 0.1 mm 2 m/s 608 mmHg 82%
    03:00 -2°C° 0.1 mm 2 m/s 608 mmHg 82%
    04:00 -3°C° 0.1 mm 2 m/s 608 mmHg 82%
    05:00 -3°C° 0.1 mm 2 m/s 608 mmHg 83%
    06:00 -3°C° 0.1 mm 2 m/s 608 mmHg 84%
    07:00 -4°C° 0.2 mm 3 m/s 609 mmHg 82%
    08:00 -4°C° 0.2 mm 3 m/s 609 mmHg 80%
    09:00 -4°C° 0.2 mm 3 m/s 610 mmHg 79%
    10:00 -4°C° 0.3 mm 4 m/s 610 mmHg 77%
    11:00 -3°C° 0.3 mm 4 m/s 610 mmHg 76%
    12:00 -3°C° 0.3 mm 4 m/s 610 mmHg 75%
    13:00 -4°C° 0.3 mm 4 m/s 611 mmHg 77%
    14:00 -4°C° 0.3 mm 4 m/s 611 mmHg 78%
    15:00 -4°C° 0.3 mm 4 m/s 611 mmHg 80%
    16:00 -5°C° 0.2 mm 3 m/s 612 mmHg 81%
    17:00 -5°C° 0.2 mm 3 m/s 612 mmHg 82%
    18:00 -5°C° 0.2 mm 2 m/s 613 mmHg 83%
    19:00 -5°C° 0 mm 2 m/s 613 mmHg 83%
    20:00 -5°C° 0 mm 2 m/s 613 mmHg 83%
    21:00 -6°C° 0 mm 2 m/s 613 mmHg 83%
    22:00 -6°C° 0 mm 2 m/s 613 mmHg 81%
    23:00 -7°C° 0 mm 2 m/s 613 mmHg 80%

    14 Décembre, Vendredi

    Heure Température Précipitation Vent Pression Humidité
    00:00 -7°C° 0 mm 2 m/s 613 mmHg 79%
    01:00 -7°C° 0 mm 2 m/s 614 mmHg 79%
    02:00 -7°C° 0 mm 2 m/s 614 mmHg 79%
    03:00 -7°C° 0 mm 2 m/s 614 mmHg 80%
    04:00 -8°C° 0 mm 2 m/s 614 mmHg 80%
    05:00 -8°C° 0 mm 2 m/s 614 mmHg 80%
    06:00 -8°C° 0 mm 2 m/s 614 mmHg 80%
    07:00 -7°C° 0 mm 2 m/s 615 mmHg 76%
    08:00 -6°C° 0 mm 1 m/s 615 mmHg 72%
    09:00 -4°C° 0 mm 1 m/s 616 mmHg 67%
    10:00 -5°C° 0 mm 2 m/s 616 mmHg 65%
    11:00 -4°C° 0 mm 2 m/s 616 mmHg 62%
    12:00 -3°C° 0 mm 2 m/s 616 mmHg 59%
    13:00 -4°C° 0 mm 2 m/s 616 mmHg 63%
    14:00 -4°C° 0 mm 2 m/s 615 mmHg 67%
    15:00 -2°C° 0 mm 1 m/s 615 mmHg 71%
    16:00 -3°C° 0.1 mm 1 m/s 615 mmHg 75%
    17:00 -4°C° 0.1 mm 1 m/s 615 mmHg 79%
    18:00 -4°C° 0.1 mm 1 m/s 615 mmHg 84%
    19:00 -4°C° 0.2 mm 1 m/s 615 mmHg 85%
    20:00 -6°C° 0.2 mm 1 m/s 615 mmHg 86%
    21:00 -6°C° 0.2 mm 1 m/s 615 mmHg 87%
    22:00 -6°C° 0.2 mm 1 m/s 615 mmHg 87%
    23:00 -6°C° 0.2 mm 1 m/s 615 mmHg 87%

    15 Décembre, Samedi

    Heure Température Précipitation Vent Pression Humidité
    00:00 -6°C° 0.2 mm 1 m/s 615 mmHg 88%
    01:00 -6°C° 0.1 mm 1 m/s 615 mmHg 88%
    02:00 -6°C° 0.1 mm 1 m/s 615 mmHg 87%
    03:00 -6°C° 0.1 mm 1 m/s 616 mmHg 87%
    04:00 -7°C° 0.1 mm 1 m/s 616 mmHg 86%
    05:00 -7°C° 0.1 mm 1 m/s 616 mmHg 85%
    06:00 -7°C° 0.1 mm 1 m/s 616 mmHg 83%
    07:00 -6°C° 0 mm 1 m/s 616 mmHg 79%
    08:00 -6°C° 0 mm 1 m/s 617 mmHg 75%
    09:00 -4°C° 0 mm 1 m/s 617 mmHg 71%
    10:00 -3°C° 0 mm 1 m/s 617 mmHg 67%
    11:00 -3°C° 0 mm 1 m/s 618 mmHg 63%
    12:00 -2°C° 0 mm 1 m/s 618 mmHg 60%
    13:00 -2°C° 0 mm 1 m/s 618 mmHg 62%
    14:00 -2°C° 0 mm 1 m/s 618 mmHg 64%
    15:00 -2°C° 0 mm 1 m/s 618 mmHg 66%
    16:00 -3°C° 0 mm 1 m/s 618 mmHg 70%
    17:00 -6°C° 0 mm 1 m/s 618 mmHg 74%
    18:00 -7°C° 0 mm 1 m/s 617 mmHg 78%
    19:00 -7°C° 0 mm 1 m/s 618 mmHg 76%
    20:00 -7°C° 0 mm 1 m/s 618 mmHg 74%
    21:00 -7°C° 0 mm 1 m/s 618 mmHg 71%
    22:00 -7°C° 0 mm 1 m/s 618 mmHg 69%
    23:00 -7°C° 0 mm 1 m/s 618 mmHg 68%

    16 Décembre, Dimanche

    Heure Température Précipitation Vent Pression Humidité
    00:00 -8°C° 0 mm 1 m/s 618 mmHg 66%
    01:00 -8°C° 0 mm 1 m/s 618 mmHg 65%
    02:00 -8°C° 0 mm 1 m/s 618 mmHg 65%
    03:00 -8°C° 0 mm 1 m/s 618 mmHg 64%
    04:00 -8°C° 0 mm 1 m/s 618 mmHg 64%
    05:00 -8°C° 0 mm 1 m/s 618 mmHg 64%
    06:00 -8°C° 0 mm 1 m/s 618 mmHg 64%
    07:00 -7°C° 0 mm 1 m/s 618 mmHg 62%
    08:00 -7°C° 0 mm 1 m/s 619 mmHg 60%
    09:00 -6°C° 0 mm 1 m/s 619 mmHg 58%
    10:00 -4°C° 0 mm 1 m/s 620 mmHg 57%
    11:00 -3°C° 0 mm 1 m/s 620 mmHg 56%
    12:00 -2°C° 0 mm 1 m/s 620 mmHg 55%
    13:00 -2°C° 0 mm 1 m/s 620 mmHg 60%
    14:00 -3°C° 0 mm 1 m/s 620 mmHg 64%
    15:00 -3°C° 0 mm 1 m/s 619 mmHg 69%
    16:00 -4°C° 0 mm 1 m/s 619 mmHg 72%
    17:00 -6°C° 0 mm 1 m/s 619 mmHg 75%
    18:00 -7°C° 0 mm 1 m/s 619 mmHg 78%
    19:00 -7°C° 0 mm 1 m/s 619 mmHg 76%
    20:00 -7°C° 0 mm 1 m/s 619 mmHg 74%
    21:00 -8°C° 0 mm 2 m/s 619 mmHg 73%
    22:00 -9°C° 0 mm 2 m/s 619 mmHg 72%
    23:00 -9°C° 0 mm 2 m/s 619 mmHg 71%
    Voir plus